Date,TemperatureHighF,TemperatureAvgF,TemperatureLowF,DewpointHighF,DewpointAvgF,DewpointLowF,HumidityHigh,HumidityAvg,HumidityLow,PressureMaxIn,PressureMinIn,WindSpeedMaxMPH,WindSpeedAvgMPH,GustSpeedMaxMPH,PrecipitationSumIn
2013-1-1,32,23,11,19,6,-5,78,50,24,30.41,30.30,8,2,13,0.08
2013-1-2,48,36,27,22,11,-6,50,35,18,30.32,30.03,8,1,13,0.02
2013-1-3,39,29,23,25,18,9,98,64,41,30.23,29.98,12,2,17,0.00
2013-1-4,35,27,21,23,13,-11,91,60,17,30.40,30.22,8,2,13,0.01
2013-1-5,44,37,30,11,3,-9,32,24,17,30.42,30.27,8,3,11,0.00
2013-1-6,46,40,34,16,2,-12,47,23,10,30.27,29.87,23,12,38,0.00
2013-1-7,37,32,27,21,18,12,74,56,36,29.95,29.78,22,7,41,0.00
2013-1-8,43,37,31,22,15,6,68,42,24,30.15,29.93,18,9,29,0.00
2013-1-9,51,41,35,16,9,3,41,27,19,30.25,30.07,16,5,33,0.00
2013-1-10,43,38,29,24,14,2,80,37,19,30.07,29.74,36,17,68,0.00
2013-1-11,29,20,14,26,11,-4,92,70,30,30.07,29.72,18,6,54,0.00
2013-1-12,20,14,10,7,2,-3,68,58,45,30.29,30.06,13,2,20,0.00
2013-1-13,24,16,8,6,-2,-13,61,45,32,30.30,30.18,9,3,15,0.00
2013-1-19,49,45,38,22,19,13,50,36,29,30.17,30.12,7,3,11,0.00
2013-1-20,53,47,37,32,26,20,58,45,37,30.16,30.04,11,5,18,0.00
2013-1-21,56,47,41,34,30,27,62,51,37,30.09,29.99,9,3,14,0.00
2013-1-22,57,44,30,30,26,20,74,53,27,30.24,30.09,10,2,16,0.00
2013-1-23,56,44,33,30,25,18,78,48,31,30.28,30.20,14,4,21,0.00
2013-1-24,48,45,41,41,34,26,92,68,45,30.24,30.13,17,6,31,0.26
2013-1-25,55,48,43,42,38,34,83,69,58,30.18,29.95,23,5,32,0.00
2013-1-26,45,40,37,41,38,34,96,92,79,29.97,29.80,20,6,55,0.76
2013-1-27,38,37,35,37,35,33,96,94,90,30.03,29.93,26,12,42,0.01
2013-1-28,36,28,20,35,27,18,97,93,84,29.97,29.87,30,12,58,0.01
2013-1-29,24,20,15,17,15,11,92,81,68,30.35,29.95,17,6,30,0.09
2013-1-30,42,28,17,21,15,5,81,58,28,30.50,30.35,19,1,36,0.00
2013-1-31,48,39,27,21,12,3,73,35,18,30.37,30.19,11,2,16,0.00